Content
SEND FEEDBACK

Daily
Averages
Monthly
Summary
United States of America

FOREST FALLS, CALIFORNIA


Home > North America > United States > California
Elevation: 7070 feet     Latitude: 34 03N     Longitude: 116 49W

WEATHER
 
SELECT A DAY
Number of Records: 301,524;   Date Range: 4/19/07 - 7/29/14
 
SHARE

PRINT THIS DATA

[ ← Previous Day ]
WEATHER ALMANAC - JANUARY 31, 2013
[ Next Day → ]
[ °C ]   °F
Weather ElementAverageHighLow
Temperature35.2 °F50 °F (1:15 pm)24.8 °F (6:15 am)
Dewpoint21.4 °F26.6 °F (8:35 am)17.6 °F (3:15 pm)
Humidity61.4 %86 % (6:15 am)28 % (3:15 pm)
Barometer30.31 in30.36 in (12:35 am)30.26 in (2:55 pm)
Wind Speed4 mph15 mph (10:15 am)
Wind Gust17.3 mph (11:15 am)
Weather ElementAverage
Visibility10 mi
Wind DirectionNE (44.5 °)

Weather ElementTotal
Precipitation---
Heating Degree Days27.6 (Base 65)
Averaged from 65 records on January 31, 2013
WEATHER CONDITIONS BREAKOUT
WIND DIRECTION BREAKOUT
WEATHER BY HOUR - JANUARY 31, 2013
[ °C ]   °F
Local TimeTemperatureDewpointHumidityBarometerVisibilityWind DirectionWind SpeedGust SpeedPrecipitationEventsConditions
12:35 AM28.4 °F21.2 °F74 %30.36 in10.0 miCalmClear
12:55 AM28.4 °F21.2 °F74 %30.35 in10.0 miCalmClear
1:15 AM28.4 °F21.2 °F74 %30.35 in10.0 miCalmClear
1:35 AM28.4 °F21.2 °F74 %30.35 in10.0 miEast (80°)4.6 mphClear
1:55 AM28.4 °F21.2 °F74 %30.35 in10.0 miEast (80°)3.5 mphClear
2:15 AM28.4 °F21.2 °F74 %30.34 in10.0 miCalmClear
2:35 AM26.6 °F21.2 °F80 %30.34 in10.0 miEast (90°)4.6 mphClear
2:55 AM28.4 °F21.2 °F74 %30.34 in10.0 miCalmClear
3:15 AM28.4 °F21.2 °F74 %30.33 in10.0 miEast (90°)3.5 mphClear
3:35 AM28.4 °F21.2 °F74 %30.33 in10.0 miCalmClear
4:15 AM26.6 °F21.2 °F80 %30.32 in10.0 miCalmClear
4:35 AM26.6 °F21.2 °F80 %30.32 in10.0 miCalmClear
4:55 AM26.6 °F21.2 °F80 %30.31 in10.0 miCalmClear
5:15 AM26.6 °F21.2 °F80 %30.31 in10.0 miEast (90°)4.6 mphClear
5:35 AM26.6 °F21.2 °F80 %30.31 in10.0 miEast (80°)3.5 mphClear
5:55 AM26.6 °F21.2 °F80 %30.31 in10.0 miCalmClear
6:15 AM24.8 °F21.2 °F86 %30.31 in10.0 miCalmClear
6:35 AM24.8 °F21.2 °F86 %30.31 in10.0 miCalmClear
6:55 AM24.8 °F21.2 °F86 %30.31 in10.0 miCalmClear
7:15 AM26.6 °F21.2 °F80 %30.32 in10.0 miEast (90°)3.5 mphClear
7:35 AM26.6 °F21.2 °F80 %30.32 in10.0 miCalmClear
7:55 AM28.4 °F23.0 °F80 %30.32 in10.0 miEast (80°)4.6 mphClear
8:15 AM32.0 °F24.8 °F75 %30.33 in10.0 miENE (60°)5.8 mphClear
8:35 AM35.6 °F26.6 °F70 %30.33 in10.0 miENE (70°)4.6 mphClear
8:55 AM41.0 °F23.0 °F49 %30.33 in10.0 miEast (90°)6.9 mphClear
9:15 AM42.8 °F23.0 °F46 %30.34 in10.0 miESE (110°)6.9 mphClear
9:35 AM42.8 °F21.2 °F42 %30.35 in10.0 miEast (80°)10.4 mphClear
9:55 AM42.8 °F21.2 °F42 %30.35 in10.0 miEast (80°)10.4 mphClear
10:15 AM44.6 °F21.2 °F39 %30.35 in10.0 miENE (70°)15.0 mphClear
10:35 AM44.6 °F21.2 °F39 %30.35 in10.0 miENE (70°)12.7 mphClear
10:55 AM44.6 °F19.4 °F37 %30.34 in10.0 miENE (70°)13.8 mphClear
11:15 AM44.6 °F19.4 °F37 %30.34 in10.0 miNE (50°)9.2 mph17.3 mphClear
11:35 AM44.6 °F19.4 °F37 %30.34 in10.0 miENE (70°)11.5 mphClear
11:55 AM44.6 °F19.4 °F37 %30.33 in10.0 miENE (60°)9.2 mphClear
12:15 PM46.4 °F19.4 °F34 %30.32 in10.0 miNE (40°)6.9 mphClear
12:35 PM46.4 °F21.2 °F37 %30.31 in10.0 miEast (80°)6.9 mphClear
12:55 PM48.2 °F21.2 °F34 %30.30 in10.0 miEast (80°)8.1 mphClear
1:15 PM50.0 °F19.4 °F30 %30.29 in10.0 miEast (80°)10.4 mphClear
1:35 PM50.0 °F21.2 °F32 %30.28 in10.0 miEast (80°)10.4 mphClear
1:55 PM50.0 °F21.2 °F32 %30.28 in10.0 miENE (60°)10.4 mphClear
2:15 PM50.0 °F19.4 °F30 %30.27 in10.0 miEast (90°)8.1 mphClear
2:35 PM50.0 °F19.4 °F30 %30.27 in10.0 miEast (90°)9.2 mphClear
2:55 PM50.0 °F21.2 °F32 %30.26 in10.0 miESE (110°)5.8 mphClear
3:15 PM50.0 °F17.6 °F28 %30.26 in10.0 miEast (80°)6.9 mphClear
3:35 PM48.2 °F21.2 °F34 %30.26 in10.0 miEast (100°)6.9 mphClear
4:15 PM46.4 °F23.0 °F40 %30.26 in10.0 miSE (130°)8.1 mphClear
4:35 PM44.6 °F23.0 °F43 %30.26 in10.0 miEast (100°)5.8 mphClear
4:55 PM42.8 °F23.0 °F46 %30.26 in10.0 miESE (110°)4.6 mphClear
5:15 PM41.0 °F23.0 °F49 %30.27 in10.0 miEast (100°)3.5 mphClear
5:35 PM37.4 °F23.0 °F56 %30.27 in10.0 miCalmClear
6:15 PM33.8 °F23.0 °F65 %30.28 in10.0 miCalmClear
6:35 PM32.0 °F23.0 °F69 %30.29 in10.0 miCalmClear
6:55 PM32.0 °F23.0 °F69 %30.28 in10.0 miCalmClear
7:15 PM30.2 °F23.0 °F75 %30.29 in10.0 miCalmClear
7:35 PM30.2 °F23.0 °F75 %30.29 in10.0 miCalmClear
7:55 PM30.2 °F23.0 °F75 %30.29 in10.0 miCalmClear
8:15 PM28.4 °F21.2 °F74 %30.30 in10.0 miCalmClear
8:35 PM28.4 °F21.2 °F74 %30.30 in10.0 miCalmClear
9:15 PM28.4 °F21.2 °F74 %30.30 in10.0 miCalmClear
9:35 PM26.6 °F21.2 °F80 %30.30 in10.0 miCalmClear
10:15 PM26.6 °F21.2 °F80 %30.30 in10.0 miCalmClear
10:35 PM26.6 °F21.2 °F80 %30.30 in10.0 miCalmClear
10:55 PM26.6 °F21.2 °F80 %30.30 in7.0 miCalmClear
11:15 PM26.6 °F21.2 °F80 %30.30 in10.0 miCalmClear
11:35 PM26.6 °F21.2 °F80 %30.30 in10.0 miCalmClear
Hourly data recorded from KL35, located miles away from Forest Falls, California







STORIES FROM OUR PARTNERS